Вернуться в каталог

COSMOS 842

АктивенВоенныеPO
NORAD 9025·PAYLOAD·🇷🇺 Russia

Запущен Jul 21, 1976 с Plesetsk Cosmodrome

Loading…

Ближайшие Пролёты (ближайшие 24 часа)

TLE

СвежийSource: Space-Track

Эпоха: Sep 14, 2026, 05:45 UTC

1 09025U 76070A   26257.23966833  .00000046  00000-0  32079-4 0  9993
2 09025  82.9922 350.7914 0028006  19.1819   9.7678 13.74251753514324

Отслеживайте COSMOS 842 в реальном времени с AllMySat

Download on the App Store